Fremont, MI

3:26 PM EDT on September 22, 2019 (GMT -0400)
Fremont

Weather History for KFFX - June, 2019

Change the Weather History Date:

Monday, June 3, 2019

  Actual Average (WUND) Record (WUND)
Temperature  
Mean Temperature 51 °F -  
Max Temperature 67 °F - - (-1)
Min Temperature 35 °F - - (-1)
Degree Days  
Heating Degree Days 14    
Growing Degree Days 1 (Base 50)    
Moisture  
Dew Point 32 °F    
Average Humidity 51    
Maximum Humidity 96    
Minimum Humidity 18    
Precipitation  
Precipitation 0.00 in - - ()
Sea Level Pressure  
Sea Level Pressure 30.11 in    
Wind  
Wind Speed 3 mph ()    
Max Wind Speed 14 mph    
Max Gust Speed 18 mph    
Visibility 9.9 miles    
Events      
Averages and records for this station are not official NWS values.
T = Trace of Precipitation, MM = Missing Value Source: Averaged Metar Reports

Daily Weather History Graph

Daily Weather History Graph

Search for Another Location

Airport or City:

Astronomy

Jun. 03, 2019 Rise Set
Actual Time 6:05 AM EDT 9:19 PM EDT
Civil Twilight 5:30 AM EDT 9:54 PM EDT
Nautical Twilight 4:45 AM EDT 10:39 PM EDT
Astronomical Twilight 3:50 AM EDT 11:35 PM EDT
Moon 6:27 AM EDT (6/3) 9:42 PM EDT (6/3)
Length of Visible Light 16h 24m
Length of Day
15h 14m
New Moon, 0% of the Moon is Illuminated
Jun 3
New Moon
Jun 10
First Quarter
Jun 17
Full
Jun 25
Last Quarter
Jul 2
New

Hourly Weather History & Observations

Time (EDT) Temp. Windchill Dew Point Humidity Pressure Visibility Wind Dir Wind Speed Gust Speed Precip Events Conditions
12:15 AM 46.4 °F 44.3 °F 28.8 °F 50% 30.05 in 10.0 mi NNE 4.6 mph - N/A   Clear
12:16 AM 46.4 °F 44.3 °F 28.6 °F 50% 30.05 in 10.0 mi North 4.6 mph - N/A   Clear
12:35 AM 45.7 °F 43.4 °F 28.4 °F 51% 30.05 in 10.0 mi North 4.6 mph - N/A   Clear
12:36 AM 45.7 °F 44.4 °F 28.2 °F 51% 30.05 in 10.0 mi North 3.5 mph - N/A   Clear
12:55 AM 45.7 °F 44.4 °F 28.6 °F 51% 30.06 in 10.0 mi North 3.5 mph - N/A   Clear
12:56 AM 45.5 °F 44.2 °F 28.6 °F 52% 30.06 in 10.0 mi North 3.5 mph - N/A   Clear
1:15 AM 45.5 °F 44.2 °F 28.4 °F 51% 30.06 in 10.0 mi North 3.5 mph - N/A   Clear
1:35 AM 44.2 °F - 30.6 °F 59% 30.06 in 10.0 mi Calm Calm - N/A   Clear
1:36 AM 43.7 °F - 30.6 °F 60% 30.06 in 10.0 mi Calm Calm - N/A   Clear
1:55 AM 41.9 °F - 30.7 °F 65% 30.07 in 10.0 mi Calm Calm - N/A   Clear
1:56 AM 41.9 °F - 30.7 °F 65% 30.07 in 10.0 mi Calm Calm - N/A   Clear
2:16 AM 39.4 °F - 31.8 °F 74% 30.07 in 10.0 mi Calm Calm - N/A   Clear
2:35 AM 39.7 °F - 31.6 °F 73% 30.07 in 10.0 mi Calm Calm - N/A   Clear
2:55 AM 39.7 °F - 31.1 °F 71% 30.08 in 10.0 mi Calm Calm - N/A   Clear
3:15 AM 39.4 °F - 31.8 °F 74% 30.08 in 10.0 mi Calm Calm - N/A   Clear
3:35 AM 38.3 °F - 33.3 °F 82% 30.08 in 10.0 mi Calm Calm - N/A   Clear
3:56 AM 38.7 °F - 35.4 °F 88% 30.08 in 10.0 mi Calm Calm - N/A   Clear
4:15 AM 38.1 °F - 36.0 °F 92% 30.10 in 10.0 mi Calm Calm - N/A   Clear
4:35 AM 37.8 °F - 35.8 °F 93% 30.10 in 10.0 mi Calm Calm - N/A   Clear
4:56 AM 36.7 °F - 35.2 °F 95% 30.10 in 10.0 mi Calm Calm - N/A   Clear
5:15 AM 36.9 °F - 35.2 °F 94% 30.10 in 10.0 mi Calm Calm - N/A   Clear
5:16 AM 36.7 °F - 35.2 °F 95% 30.10 in 10.0 mi Calm Calm - N/A   Clear
5:35 AM 36.7 °F - 35.2 °F 95% 30.10 in 10.0 mi Calm Calm - N/A   Clear
5:36 AM 36.7 °F - 35.2 °F 95% 30.10 in 10.0 mi Calm Calm - N/A   Clear
6:15 AM 35.8 °F - 34.5 °F 95% 30.10 in 10.0 mi Calm Calm - N/A   Clear
6:16 AM 35.6 °F - 34.5 °F 96% 30.11 in 10.0 mi Calm Calm - N/A   Clear
6:36 AM 35.6 °F - 34.5 °F 96% 30.12 in 10.0 mi Calm Calm - N/A   Clear
6:55 AM 37.2 °F - 36.0 °F 95% 30.12 in 10.0 mi Calm Calm - N/A   Clear
6:56 AM 37.2 °F - 36.0 °F 95% 30.12 in 10.0 mi Calm Calm - N/A   Clear
7:15 AM 39.4 °F - 37.6 °F 93% 30.12 in 10.0 mi Calm Calm - N/A   Clear
7:17 AM 39.7 °F - 37.9 °F 93% 30.12 in 10.0 mi Calm Calm - N/A   Clear
7:35 AM 43.0 °F - 35.6 °F 75% 30.12 in 10.0 mi Calm Calm - N/A   Clear
7:36 AM 43.0 °F - 35.4 °F 75% 30.13 in 10.0 mi Calm Calm - N/A   Clear
7:55 AM 45.5 °F - 35.4 °F 68% 30.14 in 10.0 mi Calm Calm - N/A   Clear
7:57 AM 45.7 °F - 35.4 °F 67% 30.14 in 10.0 mi Calm Calm - N/A   Clear
8:15 AM 48.0 °F - 34.2 °F 59% 30.15 in 10.0 mi North 3.5 mph - N/A   Clear
8:35 AM 49.1 °F - 33.1 °F 54% 30.15 in 10.0 mi North 4.6 mph - N/A   Clear
8:36 AM 49.1 °F - 32.7 °F 53% 30.15 in 10.0 mi North 5.8 mph - N/A   Clear
8:56 AM 50.7 °F - 33.3 °F 51% 30.16 in 10.0 mi North 4.6 mph - N/A   Clear
9:15 AM 51.3 °F - 32.9 °F 50% 30.17 in 10.0 mi North 4.6 mph - N/A   Clear
9:16 AM 51.4 °F - 32.9 °F 49% 30.17 in 10.0 mi North 4.6 mph - N/A   Clear
9:35 AM 51.8 °F - 33.1 °F 49% 30.16 in 10.0 mi Calm Calm - N/A   Clear
9:36 AM 52.0 °F - 33.4 °F 49% 30.16 in 10.0 mi NNE 3.5 mph - N/A   Clear
9:56 AM 52.7 °F - 32.4 °F 46% 30.16 in 10.0 mi NW 4.6 mph - N/A   Clear
10:15 AM 53.6 °F - 32.7 °F 45% 30.17 in 10.0 mi NNW 3.5 mph - N/A   Clear
10:16 AM 53.8 °F - 32.9 °F 45% 30.17 in 10.0 mi Calm Calm - N/A   Clear
10:35 AM 54.3 °F - 32.4 °F 43% 30.17 in 10.0 mi Calm Calm - N/A   Clear
10:55 AM 55.8 °F - 33.4 °F 43% 30.17 in 10.0 mi North 4.6 mph - N/A   Clear
11:15 AM 56.3 °F - 32.0 °F 40% 30.17 in 10.0 mi Calm Calm - N/A   Clear
11:16 AM 56.3 °F - 31.6 °F 39% 30.17 in 10.0 mi Calm Calm - N/A   Clear
11:36 AM 57.0 °F - 31.3 °F 38% 30.16 in 10.0 mi Calm Calm - N/A   Clear
11:55 AM 57.0 °F - 30.9 °F 37% 30.17 in 10.0 mi SSE 3.5 mph - N/A   Clear
12:15 PM 57.6 °F - 30.0 °F 35% 30.17 in 10.0 mi Calm Calm - N/A   Clear
12:36 PM 58.5 °F - 30.4 °F 34% 30.16 in 10.0 mi Calm Calm - N/A   Clear
12:56 PM 59.2 °F - 31.6 °F 35% 30.16 in 10.0 mi North 5.8 mph - N/A   Clear
1:16 PM 60.3 °F - 29.7 °F 31% 30.15 in 10.0 mi SW 4.6 mph - N/A   Clear
1:35 PM 61.3 °F - 30.2 °F 31% 30.15 in 10.0 mi East 5.8 mph - N/A   Clear
1:36 PM 61.2 °F - 30.4 °F 31% 30.15 in 10.0 mi ENE 6.9 mph - N/A   Clear
1:55 PM 62.1 °F - 26.2 °F 26% 30.14 in 10.0 mi SSW 3.5 mph - N/A   Clear
2:15 PM 63.0 °F - 27.9 °F 27% 30.13 in 10.0 mi Calm Calm - N/A   Clear
2:16 PM 63.0 °F - 27.1 °F 26% 30.13 in 10.0 mi South 3.5 mph - N/A   Clear
2:35 PM 64.4 °F - 27.9 °F 25% 30.12 in 10.0 mi North 3.5 mph - N/A   Clear
2:36 PM 64.2 °F - 27.5 °F 25% 30.12 in 10.0 mi Calm Calm - N/A   Clear
2:56 PM 64.6 °F - 27.5 °F 25% 30.11 in 10.0 mi North 6.9 mph - N/A   Clear
3:15 PM 64.8 °F - 28.6 °F 26% 30.11 in 10.0 mi WNW 8.1 mph - N/A   Clear
3:16 PM 65.1 °F - 27.9 °F 25% 30.11 in 10.0 mi NW 5.8 mph - N/A   Clear
3:35 PM 65.1 °F - 29.7 °F 26% 30.11 in 10.0 mi NNE 4.6 mph - N/A   Clear
3:55 PM 66.0 °F - 26.6 °F 23% 30.11 in 10.0 mi WNW 9.2 mph - N/A   Clear
3:56 PM 66.2 °F - 26.6 °F 23% 30.11 in 10.0 mi WNW 5.8 mph - N/A   Clear
4:15 PM 66.4 °F - 21.9 °F 18% 30.11 in 10.0 mi West 9.2 mph - N/A   Clear
4:16 PM 66.4 °F - 21.2 °F 18% 30.11 in 10.0 mi West 8.1 mph - N/A   Clear
4:35 PM 66.7 °F - 23.7 °F 20% 30.11 in 10.0 mi NNW 4.6 mph - N/A   Clear
4:36 PM 66.6 °F - 24.1 °F 20% 30.11 in 10.0 mi WNW 8.1 mph - N/A   Clear
4:55 PM 66.9 °F - 23.2 °F 19% 30.11 in 10.0 mi NNW 5.8 mph - N/A   Clear
5:15 PM 67.5 °F - 25.5 °F 21% 30.11 in 10.0 mi NW 9.2 mph - N/A   Clear
5:16 PM 67.3 °F - 25.7 °F 21% 30.11 in 10.0 mi NW 6.9 mph - N/A   Clear
5:35 PM 66.6 °F - 27.7 °F 23% 30.10 in 10.0 mi NW 9.2 mph 16.1 mph N/A   Clear
5:36 PM 66.6 °F - 27.3 °F 23% 30.10 in 10.0 mi NW 8.1 mph 16.1 mph N/A   Clear
5:56 PM 66.6 °F - 30.0 °F 26% 30.11 in 10.0 mi West 9.2 mph - N/A   Clear
6:15 PM 64.6 °F - 30.6 °F 28% 30.11 in 10.0 mi West 8.1 mph 16.1 mph N/A   Clear
6:16 PM 64.6 °F - 30.9 °F 28% 30.11 in 10.0 mi West 8.1 mph 16.1 mph N/A   Clear
6:35 PM 63.7 °F - 31.5 °F 30% 30.11 in 10.0 mi West 13.8 mph 18.4 mph N/A   Clear
6:55 PM 62.8 °F - 32.7 °F 32% 30.10 in 10.0 mi NW 10.4 mph - N/A   Mostly Cloudy
6:56 PM 63.0 °F - 32.7 °F 32% 30.10 in 10.0 mi NW 9.2 mph - N/A   Mostly Cloudy
7:15 PM 61.7 °F - 31.5 °F 32% 30.10 in 10.0 mi NW 9.2 mph - N/A   Scattered Clouds
7:17 PM 61.7 °F - 31.5 °F 32% 30.10 in 10.0 mi NW 8.1 mph - N/A   Scattered Clouds
7:35 PM 61.5 °F - 31.8 °F 33% 30.10 in 10.0 mi NNW 8.1 mph - N/A   Clear
7:36 PM 61.3 °F - 32.2 °F 33% 30.10 in 10.0 mi NNW 8.1 mph - N/A   Clear
7:55 PM 59.4 °F - 32.7 °F 37% 30.10 in 10.0 mi NW 6.9 mph - N/A   Scattered Clouds
7:56 PM 59.4 °F - 32.5 °F 36% 30.10 in 10.0 mi NW 5.8 mph - N/A   Scattered Clouds
8:15 PM 59.2 °F - 33.3 °F 38% 30.10 in 10.0 mi WNW 6.9 mph - N/A   Overcast
8:17 PM 59.0 °F - 33.3 °F 38% 30.10 in 10.0 mi NW 6.9 mph - N/A   Overcast
8:35 PM 57.6 °F - 34.0 °F 41% 30.10 in 10.0 mi WNW 4.6 mph - N/A   Overcast
8:36 PM 57.4 °F - 34.5 °F 42% 30.10 in 10.0 mi WNW 4.6 mph - N/A   Overcast
8:55 PM 56.3 °F - 34.9 °F 45% 30.09 in 10.0 mi NW 4.6 mph - N/A   Overcast
8:57 PM 56.1 °F - 34.7 °F 45% 30.09 in 10.0 mi NW 3.5 mph - N/A   Mostly Cloudy
9:15 PM 55.6 °F - 34.5 °F 45% 30.09 in 10.0 mi WNW 3.5 mph - N/A   Scattered Clouds
9:35 PM 54.1 °F - 36.9 °F 52% 30.08 in 10.0 mi Calm Calm - N/A   Clear
9:56 PM 52.2 °F - 38.1 °F 59% 30.09 in 10.0 mi Calm Calm - N/A   Clear
10:15 PM 50.4 °F - 37.9 °F 62% 30.09 in 10.0 mi Calm Calm - N/A   Clear
10:16 PM 50.4 °F - 37.8 °F 62% 30.09 in 10.0 mi Calm Calm - N/A   Clear
10:35 PM 49.5 °F - 37.8 °F 64% 30.09 in 10.0 mi Calm Calm - N/A   Clear
10:36 PM 49.3 °F - 37.9 °F 65% 30.09 in 10.0 mi Calm Calm - N/A   Clear
10:55 PM 49.1 °F - 38.8 °F 68% 30.10 in 7.0 mi Calm Calm - N/A   Clear
11:15 PM 47.8 °F - 39.7 °F 74% 30.09 in 7.0 mi Calm Calm - N/A   Clear
11:35 PM 47.1 °F - 39.2 °F 74% 30.10 in 10.0 mi SW 3.5 mph - N/A   Clear
11:36 PM 47.1 °F - 39.2 °F 74% 30.10 in 10.0 mi SSW 3.5 mph - N/A   Clear
11:55 PM 45.9 °F - 39.0 °F 77% 30.11 in 10.0 mi Calm Calm - N/A   Clear